Regional Weather Roundup
Issued by NWS

Home | Current Version | Previous Version | Graphics & Text | Print | Product List | Glossary Off
Versions: 1 2 3 4 5 6 7 8 9 10 11 12 13 14 15 16 17 18 19 20 21 22 23 24 25 26 27 28 29 30 31 32 33 34 35 36 37 38 39 40 41 42 43 44 45 46 47 48 49 50

000
ASUS43 KLSX 230607
RWRMO

WEATHER SUMMARY FOR MISSOURI
NATIONAL WEATHER SERVICE SPRINGFIELD MO
100 AM CDT WED APR 23 2014

NOTE: "FAIR" INDICATES FEW OR NO CLOUDS BELOW 12,000 FEET WITH NO
       SIGNIFICANT WEATHER AND/OR OBSTRUCTIONS TO VISIBILITY.
       CURRENT SKY AND/OR WEATHER CONDITIONS ARE NOT AVAILABLE FOR
       CHILLICOTHE AND FARMINGTON.

MOZ001>031-035>038-043-044-053-054-230700-
...NORTHERN AND WESTERN MISSOURI...

CITY           SKY/WX    TMP DP  RH WIND       PRES   REMARKS
KANSAS CTY INT MOCLDY    58  33  39 E12       30.00F
6HR MIN TEMP:  56; 6HR MAX TEMP:  66;

KANSAS C DTWN  FAIR      58  35  42 E6        29.99F
6HR MIN TEMP:  57; 6HR MAX TEMP:  68;

LEE`S SUMMIT   FAIR      55  35  47 E5        30.01S
6HR MIN TEMP:  53; 6HR MAX TEMP:  65;

ST JOSEPH      FAIR      56  35  45 SE12      30.00F
6HR MIN TEMP:  56; 6HR MAX TEMP:  66;

CHILLICOTHE      N/A     52  35  52 CALM      30.05R
6HR MIN TEMP:  50; 6HR MAX TEMP:  66;

KIRKSVILLE     FAIR      49  33  54 NE5       30.06R
6HR MIN TEMP:  45; 6HR MAX TEMP:  62;


$$
MOZ066>068-077>081-088>096-101>105-230700-
...SOUTHWEST MISSOURI...

CITY           SKY/WX    TMP DP  RH WIND       PRES   REMARKS
SPRINGFIELD    FAIR      46  37  71 E6        30.00F
6HR MIN TEMP:  46; 6HR MAX TEMP:  68;

JOPLIN         FAIR      52  38  58 E5        29.99F
6HR MIN TEMP:  50; 6HR MAX TEMP:  68;


$$
MOZ032>034-039>042-045>050-055>058-069>072-230700-
...CENTRAL MISSOURI...

CITY           SKY/WX    TMP DP  RH WIND       PRES   REMARKS
COLUMBIA       FAIR      50  35  56 NE8       30.04S
6HR MIN TEMP:  49; 6HR MAX TEMP:  63;

JEFFERSON CITY FAIR      45  38  76 CALM      30.03F
6HR MIN TEMP:  45; 6HR MAX TEMP:  67;

ROLLA          FAIR      49  33  54 NE7       30.02R
6HR MIN TEMP:  44; 6HR MAX TEMP:  63;

SEDALIA        FAIR      52  37  56 E5        30.04R
6HR MIN TEMP:  51; 6HR MAX TEMP:  67;

WHITEMAN AFB   FAIR      51  30  44 E3        30.02S
OSAGE BEACH    FAIR      46  34  61 CALM      30.04S

$$
MOZ051-052-059>065-230700-
...EAST CENTRAL MISSOURI...

CITY           SKY/WX    TMP DP  RH WIND       PRES   REMARKS
ST LOUIS INTL  FAIR      52  37  56 CALM      30.04R
6HR MIN TEMP:  52; 6HR MAX TEMP:  66;

SPIRIT OF STL  FAIR      43  39  86 CALM      30.03R
6HR MIN TEMP:  41; 6HR MAX TEMP:  65;

ST CHARLES     FAIR      54  31  41 N6        30.03R
6HR MIN TEMP:  49; 6HR MAX TEMP:  65;


$$
MOZ072>076-082>087-097>100-106>115-230700-
...SOUTH CENTRAL AND SOUTHEAST MISSOURI...

CITY           SKY/WX    TMP DP  RH WIND       PRES   REMARKS
CAPE GIRARDEAU FAIR      47  42  83 CALM      30.00R
6HR MIN TEMP:  47; 6HR MAX TEMP:  67;

FARMINGTON     FAIR      46  36  66 N3        30.04R
POPLAR BLUFF   FAIR      51  43  74 CALM      29.99R
6HR MIN TEMP:  51; 6HR MAX TEMP:  72;

WEST PLAINS    FAIR      49  32  52 E3        30.02R
6HR MIN TEMP:  49; 6HR MAX TEMP:  68;


$$



USA.gov is the U.S. government's official web portal to all federal, state and local government web resources and services.